Location: Mohawk View
(42.7837°N, 73.7885°W)
Time: 15:51:05
(UTC+00:00)

DNEPR-1 R/B - Pass Details

Date: 17 June 2021
Orbit: 588 x 1334 km, 64.6° (Epoch: 01 August)

Event Time Altitude Azimuth Distance (km) Brightness Sun altitude
Rises 03:57:16 0° 319° (NW) 2,825 8.0 -22.5°
Reaches altitude 10° 03:59:31 10° 313° (NW) 1,925 6.9 -22.6°
Enters shadow 04:03:32 44° 242° (WSW) 856 4.1 -22.7°
